Weather History for South Lake Tahoe, CA

Change the Weather History Date:

Thursday, August 1, 2013

  Actual Average Record
Temperature  
Mean Temperature 58 °F 62 °F  
Max Temperature 74 °F 82 °F 92 °F (1988)
Min Temperature 41 °F 42 °F 31 °F (1987)
Degree Days  
Heating Degree Days 7 4  
Month to date heating degree days 7 4  
Since 1 June heating degree days 238 452  
Since 1 July heating degree days 44 142  
Cooling Degree Days 0 1  
Month to date cooling degree days 0 1  
Year to date cooling degree days 89 20  
Since 1 June cooling degree days 89 20  
Growing Degree Days 8 (Base 50)    
Moisture  
Dew Point 26 °F    
Average Humidity 41    
Maximum Humidity 70    
Minimum Humidity 12    
Precipitation  
Precipitation 0.00 in - 0.17 in (1976)
Month to date precipitation 0.00  
Year to date precipitation 5.93  
Sea Level Pressure  
Sea Level Pressure 30.04 in    
Wind  
Wind Speed 5 mph (SSW)    
Max Wind Speed 22 mph    
Max Gust Speed 30 mph    
Visibility 10 miles    
Events      
T = Trace of Precipitation, MM = Missing Value Source: NWS Daily Summary

Daily Weather History Graph

Daily Weather History Graph

Search for Another Location

Airport:

Trip Planner

Search our weather history database for the weather conditions in past years. The results will help you decide how hot, cold, wet, or windy it might be!

Date:

Astronomy

Aug. 01, 2013 Rise Set
Actual Time 6:01 AM PDT 8:10 PM PDT
Civil Twilight 5:31 AM PDT 8:40 PM PDT
Nautical Twilight 4:55 AM PDT 9:16 PM PDT
Astronomical Twilight 4:15 AM PDT 9:55 PM PDT
Moon 1:41 AM PDT (8/1) 4:23 PM PDT (8/1)
Length of Visible Light 15h 08m
Length of Day
14h 09m
Waning Crescent, 22% of the Moon is Illuminated
Aug 1
Waning Crescent
Aug 6
New
Aug 14
First Quarter
Aug 20
Full
Aug 28
Last Quarter

Hourly Weather History & Observations

Time (PDT) Temp. Windchill Dew Point Humidity Pressure Visibility Wind Dir Wind Speed Gust Speed Precip Events Conditions
12:53 AM 48.9 °F - 36.0 °F 61% 30.06 in 10.0 mi SSW 3.5 mph - N/A   Clear
1:53 AM 46.9 °F - 36.0 °F 66% 30.05 in 10.0 mi SSW 3.5 mph - N/A   Clear
2:53 AM 45.0 °F 42.6 °F 35.1 °F 68% 30.04 in 10.0 mi South 4.6 mph - N/A   Clear
3:53 AM 44.1 °F 42.5 °F 34.0 °F 68% 30.04 in 10.0 mi SSW 3.5 mph - N/A   Clear
4:53 AM 43.0 °F 40.3 °F 34.0 °F 71% 30.04 in 10.0 mi South 4.6 mph - N/A   Clear
5:53 AM 43.0 °F 41.3 °F 34.0 °F 71% 30.05 in 10.0 mi South 3.5 mph - N/A   Clear
6:53 AM 44.1 °F - 35.1 °F 71% 30.06 in 10.0 mi Calm Calm - N/A   Clear
7:53 AM 61.0 °F - 33.1 °F 35% 30.02 in 10.0 mi SSE 5.8 mph - N/A   Clear
8:53 AM 64.9 °F - 28.0 °F 25% 30.03 in 10.0 mi SSW 9.2 mph 19.6 mph N/A   Clear
9:53 AM 66.9 °F - 26.1 °F 21% 30.03 in 10.0 mi Variable 6.9 mph 18.4 mph N/A   Clear
10:53 AM 68.0 °F - 21.9 °F 17% 30.04 in 10.0 mi South 11.5 mph 19.6 mph N/A   Clear
11:53 AM 70.0 °F - 19.0 °F 14% 30.04 in 10.0 mi SSW 12.7 mph 29.9 mph N/A   Clear
12:53 PM 71.1 °F - 18.0 °F 13% 30.06 in 10.0 mi Variable 6.9 mph 17.3 mph N/A   Clear
1:53 PM 71.1 °F - 16.0 °F 12% 30.06 in 10.0 mi SSW 10.4 mph 24.2 mph N/A   Clear
2:53 PM 72.0 °F - 18.0 °F 13% 30.04 in 10.0 mi SSW 13.8 mph 20.7 mph N/A   Clear
3:53 PM 73.0 °F - 17.1 °F 12% 30.03 in 10.0 mi Variable 5.8 mph 29.9 mph N/A   Clear
4:53 PM 72.0 °F - 23.0 °F 16% 30.03 in 10.0 mi SSW 8.1 mph 18.4 mph N/A   Clear
5:53 PM 70.0 °F - 21.9 °F 16% 30.04 in 10.0 mi SSW 8.1 mph - N/A   Clear
6:53 PM 66.0 °F - 18.0 °F 16% 30.06 in 10.0 mi SSW 6.9 mph - N/A   Clear
7:53 PM 62.1 °F - 17.1 °F 18% 30.02 in 10.0 mi SSW 6.9 mph - N/A   Clear
8:53 PM 55.0 °F - 21.0 °F 27% 30.04 in 10.0 mi Calm Calm - N/A   Clear
9:53 PM 52.0 °F - 26.1 °F 37% 30.05 in 10.0 mi South 4.6 mph - N/A   Clear
10:53 PM 48.0 °F - 27.0 °F 44% 30.06 in 10.0 mi Calm Calm - N/A   Clear
11:53 PM 44.1 °F 42.5 °F 27.0 °F 51% 30.06 in 10.0 mi SSW 3.5 mph - N/A   Clear